www.pogodaiklimat.ru

Погода и климат >> Архив погоды >> Эквадор >> Manta


ПОГОДА в Manta

  • Прогноз погоды в Manta
  • Монитор погоды в Manta
  • Климат города

АРХИВ ПОГОДЫ в Manta

Время (UTC), дата Ветер
(напр.,м/с)
 
Видим.   Явления Облачность Т
(С)
Тd
(С)
f
(%)
Тe
(С)
Тes
(С)
Комфортность P
(гПа)
Po
(гПа)
Тmin
(С)
Tmax
(С)
R
(мм)
R24
(мм)
S
(см)
18 11.12 З 7 10 км мгла {туман} 4/1 600 м
[Cu hum Ac trans]
+30.2 +24.1 70 +42 +46 опасность
перегрева
1011.9 1010.1
21 11.12 Ю 8 10 км мгла {туман} 4/4 600 м
[Cu hum]
+28.0 +21.5 68 +36 +36 очень
душно
1009.7 1007.9 +32.0
00 12.12 Ю 10 10 км мгла {туман} 6/6 600 м
[Sc]
+26.4 +21.3 74 +34 +34 очень
душно
1011.5 1009.7 +32.0
12 12.12 ЮЗ 6 10 км мгла {туман} 10/10 300 м
[Sc]
+24.2 +21.9 87 +31 +31 очень
душно
1013.1 1011.3 +23.7 28
15 12.12 Ю 8 10 км мгла {туман} 10/10 600 м
[Sc]
+26.6 +22.7 79 +35 +35 очень
душно
1014.1 1012.3
18 12.12 З 8 10 км мгла {туман} 9/9 600 м
[Sc]
+27.8 +22.4 72 +36 +37 очень
душно
1011.8 1010.0
21 12.12 З 5 10 км мгла {туман} 8/8 600 м
[Sc]
+28.6 +23.5 74 +39 +40 очень
душно
1009.6 1007.8 +30.0
00 13.12 ЮЗ 9 10 км мгла {туман} 8/5 600 м
[Sc Ac trans]
+25.8 +22.0 80 +33 +33 очень
душно
1010.9 1009.1 +30.0
12 13.12 Ю 6 10 км мгла {туман} 9/9 600 м
[Sc]
+23.1 +21.4 90 +31 +31 очень
душно
1013.2 1011.4 +22.4
15 13.12 ЮЗ 8 10 км мгла {туман} 9/9 600 м
[Sc]
+25.4 +22.6 85 +33 +34 очень
душно
1014.1 1012.3
18 13.12 ЮЗ 12 10 км мгла {туман} 9/9 600 м
[Sc]
+28.0 +23.6 77 +38 +38 очень
душно
1012.3 1010.5
21 13.12 ЮЗ 10 10 км мгла {туман} 9/9 600 м
[Sc]
+30.4 +22.6 63 +40 +40 очень
душно
1010.1 1008.3 +30.4
12 14.12 ЮЗ 8 10 км {морось, туман} 10/10 300 м
[Sc]
+23.1 +21.7 92 +31 +31 очень
душно
1013.9 1012.1 +22.8 0.4
15 14.12 ЮЗ 8 10 км мгла {туман} 9/5 600 м
[Sc Ac trans]
+27.5 +22.5 74 +36 +37 очень
душно
1014.4 1012.6
18 14.12 З 9 10 км мгла {туман} 6/3 600 м
[Cu hum Ac trans]
+29.4 +22.9 68 +39 +40 очень
душно
1012.6 1010.8
12 15.12 Ю 4 10 км мгла {туман} 9/9 600 м
[Sc]
+23.9 +21.2 85 +30 +30 очень
душно
1013.8 1012.0 +23.7
18 15.12 ЮЗ 6 10 км мгла {туман} 4/4 600 м
[Cu hum]
+27.0 +21.5 72 +34 +39 очень
душно
1011.7 1009.9
21 15.12 З 12 10 км мгла {туман} 8/8 600 м
[Sc]
+28.0 +23.3 76 +38 +38 очень
душно
1009.1 1007.3 +29.5
12 16.12 Ю 7 8000 м слабая морось {туман} 10/10 600 м
[Sc]
+24.0 +22.4 91 +31 +31 очень
душно
1013.6 1011.8 +23.2 0.0
15 16.12 Ю 11 10 км в посл. час морось {туман} 9/9 600 м
[Sc]
+26.4 +23.3 83 +36 +36 очень
душно
1014.4 1012.6
18 16.12 З 9 10 км мгла {морось, туман} 9/9 600 м
[Sc]
+27.4 +23.2 78 +37 +37 очень
душно
1011.9 1010.1 0.3
21 16.12 Ю 6 10 км мгла {туман} 6/6 600 м
[Sc diur, vesp]
+27.4 +23.2 78 +37 +38 очень
душно
1009.3 1007.5 +29.4
00 17.12 ЮЗ 4 10 км мгла {туман} 6/6 600 м
[Sc]
+26.0 +21.6 77 +33 +33 очень
душно
1011.0 1009.3 +29.4
12 17.12 СВ 4 10 км мгла {туман} 6/6 600 м
[Sc]
+23.5 +21.2 87 +30 +30 очень
душно
1012.3 1010.5 +23.3
18 17.12 З 12 10 км мгла {туман} 5/3 600 м
[Cu hum Ac trans]
+27.4 +21.3 69 +35 +35 очень
душно
1012.0 1010.2
21 17.12 Ю 10 10 км мгла {туман} 8/1 600 м
[Cu hum Ac trans]
+30.6 +23.2 65 +41 +41 опасность
перегрева
1009.3 1007.5 +32.0

 

Местоположение метеостанции Manta (Эквадор): широта -0.95 долгота -80.68 высота над уровнем моря 14 м.

В архиве по умолчанию представлена погода в Manta за последнюю неделю. Архивные данные за месяц целиком и за предыдущие месяцы, начиная с января 2011 года, Вы можете получить, выбрав интересующий диапазон дат из раскрывающегося списка и нажав кнопку "Ввод!".


*Определитесь, кто Вы:
робот инопланетянин человек

Внимание! Время в таблицах - всемирное. Для получения местного времени необходимо прибавить поправку, которая в Manta равна -5 ч.

Смотрите также архив погоды в соседних городах и на ближайших метеорологических станциях:

Погода в Portoviejo Aeropuerto (Эквадор) (25 км)
Погода в Portoviejo (Эквадор) (29 км)
Погода в Bahia De Caraquez (Эквадор) (52 км)
Погода в Pichilingue (Эквадор) (137 км)
Погода в Salinas (Эквадор) (143 км)
Погода в Puerto Ila (Эквадор) (159 км)
Погода в Guayaquil (Эквадор) (160 км)
Погода в Guayaquil Aeropuerto (Эквадор) (161 км)
Погода в Milagro (Эквадор) (177 км)
Погода в Corazon (Эквадор) (179 км)

Пояснения к столбцам:

Ветер - указаны скорость ветра в м/с - средняя за 10 мин, порывы в срок и между сроками (в фигурных скобках) и направление, откуда дует ветер: С - северный, СВ - северо-восточный, В - восточный, ЮВ - юго-восточный, Ю - южный, ЮЗ - юго-западный, З - западный, СЗ - северо-западный.
Видимость - горизонтальная дальность видимости в метрах или километрах. При видимости от 1 до 10 км при отсутствии осадков обычно наблюдается дымка, при ухудшении видимости до 1 км и менее - туман. В сухую погоду видимость может ухудшаться дымом, пылью или мглою.
Явления - указаны атмосферные явления, наблюдавшиеся в срок или в последний час перед сроком; фигурными скобками обозначены явления, наблюдавшиеся между сроками (за 1-3 часа до срока); квадратными скобками обозначены град или гололедные отложения с указанием их диаметра в мм.
Облачность - указаны через наклонную черту общая и нижняя облачность в баллах и высота нижней границы облаков в метрах; квадратными скобками обозначены формы облаков: Ci - перистые, Cs - перисто-слоистые, Cc - перисто-кучевые, Ac - высококучевые, As - высокослоистые, Sc - слоисто-кучевые, Ns - слоисто-дождевые, Cu - кучевые, Cb - кучево-дождевые. Подробнее классификацию облаков см. в Атласе облаков (PDF).
T - Температура воздуха - температура, измеренная на высоте 2 м над землей.
Td - Температура точки росы - температура, при понижении до которой содержащийся в воздухе водяной пар достигнет насыщения.
f - Относительная влажность воздуха - влажноcть воздуха, измеренная на высоте 2 м над землей.
Te - Эффективная температура - температура, которую ощущает одетый по сезону человек в тени. Характеристика душности погоды. При расчете учитывается влияние влажности воздуха и скорости ветра на теплоощущения человека.
Tes - Эффективная температура на солнце - температура, которую ощущает человек, с поправкой на солнечный нагрев. Характеристика знойности погоды. Зависит от высоты солнца над горизонтом, облачности и скорости ветра. Ночью, в пасмурную погоду, а также при ветре 12 м/с и более поправка равна нулю.
P - Атмосферное давление - приведенное к уровню моря атмосферное давление.
Po - Атмосферное давление - измеренное на уровне метеостанции атмосферное давление.
Tmin - Минимальная температура - минимум температуры воздуха на высоте 2 м над землей.
Tmax - Максимальная температура - максимум температуры воздуха на высоте 2 м над землей.
R - Количество осадков - Количество выпавших осадков за период времени, мм. При наведении курсора мыши на число - период времени, за который выпало указанное количество осадков.
R24 - Количество осадков - Количество выпавших осадков за 24 часа, мм.
S - Снежный покров - Высота снежного покрова, см. При наведении курсора мыши на число - состояние снежного покрова и степень покрытия местности в баллах.